Regional Weather Roundup
Issued by NWS Sterling, VA

Home | Current Version | Previous Version | Graphics & Text | Print | Product List | Glossary On
Versions: 1 2 3 4 5 6 7 8 9 10 11 12 13 14 15 16 17 18 19 20 21 22 23 24 25 26 27 28 29 30 31 32 33 34 35 36 37 38 39 40 41 42 43 44 45 46 47 48 49 50
000
ASUS41 KLWX 212010
RWRLWX

REGIONAL WEATHER ROUNDUP
NATIONAL WEATHER SERVICE BALTIMORE MD/WASHINGTON DC
400 PM EDT MON JUL 21 2014

Note: "FAIR" indicates few or no clouds below 12,000 feet
with no significant weather and/or obstructions to visibility.
 TC=TEMPERATURE CELSIUS

 * =Non NWS site. Station does not report precipitation (e.g. rain,
    snow, etc.), thunder, or fog.

DCZ001-MDZ009-015-VAZ040>042-051-053>054-212100-
WASHINGTON METRO
  /KDAA//-FT BELVOIR

CITY           SKY/WX    TMP DP  RH WIND       PRES   REMARKS
WASHINGTON NAT PTSUNNY   83  65  54 SE9       30.15F
DULLES         CLOUDY    81  66  60 SE5       30.15F
ANDREWS AFB    MOSUNNY   82  67  61 SE7       30.16F
QUANTICO       PTSUNNY   82  69  64 S10       30.15F
COLLEGE PARK*  CLOUDY    82  66  57 E7        30.16S
LEESBURG*      CLOUDY    82  70  65 E5        30.16S
MANASSAS*      CLOUDY    81  72  74 SE7       30.15
GAITHERSBURG*  PTSUNNY   81  68  65 E6        30.20S

$$

MDZ006>007-011-014-212100-
BALTIMORE METRO

CITY           SKY/WX    TMP DP  RH WIND       PRES   REMARKS
BWI AIRPORT    PTSUNNY   80  64  58 CALM      30.16F
MD SCIENCE CTR   N/A     81  60  48 MISG      30.17F
MARTIN STATE   MOSUNNY   82  72  69 SE5       30.18F
ANNAPOLIS      CLOUDY    79  66  64 SE6       30.17F
FORT MEADE*    PTSUNNY   79  64  61 E3        30.19S

$$

MDZ012-015-019>023-212100-
MARYLAND EASTERN SHORE

CITY           SKY/WX    TMP DP  RH WIND       PRES   REMARKS
OCEAN CITY     MOSUNNY  N/A N/A N/A E9        30.19S
SALISBURY      NOT AVBL
BAY BRIDGE AP*   N/A     81  66  61 W3        30.17S
CAMBRIDGE*     PTSUNNY   82  63  51 SE3       30.16S
EASTON*        MOSUNNY   84  66  54 CALM      30.20F

$$

MDZ017>025-212100-
SOUTHERN MARYLAND

CITY           SKY/WX    TMP DP  RH WIND       PRES   REMARKS
PATUXENT RIVER PTSUNNY   78  67  68 S9        30.17S
ST INIGOES     CLOUDY    78  66  66 E6        30.16F
LEONARDTOWN*   CLOUDY    77  63  61 E7        30.19S

$$

MDZ003>005-212100-
NORTH CENTRAL MARYLAND

CITY           SKY/WX    TMP DP  RH WIND       PRES   REMARKS
FREDERICK*     CLOUDY    81  72  74 VRB5      30.18F
HAGERSTOWN APT CLOUDY    79  67  66 SE7       30.15F
WESTMINSTER*   CLOUDY    81  66  61 SE6       30.19S

$$

MDZ501>502-212100-
WESTERN MARYLAND

CITY           SKY/WX    TMP DP  RH WIND       PRES   REMARKS
OAKLAND*       PTSUNNY   72  66  83 CALM      30.23S
CUMBERLAND*    PTSUNNY   88  66  48 E7        30.16F HX  90

$$

VAZ025>031-212100-
SHENANDOAH VALLEY

CITY           SKY/WX    TMP DP  RH WIND       PRES   REMARKS
WINCHESTER*    MOSUNNY   84  68  58 SE9       30.15F
STAUNTON*      PTSUNNY   82  64  54 SE7       30.18F

$$

WVZ021-048>050-054>055-212100-
EASTERN WEST VIRGINIA PANHANDLE

CITY           SKY/WX    TMP DP  RH WIND       PRES   REMARKS
MARTINSBURG    MOSUNNY   83  68  60 VRB6      30.15F
PETERSBURG*    MOSUNNY   86  58  37 E6        30.12F

$$

VAZ036>039-050-212100-
CENTRAL FOOTHILLS

CITY           SKY/WX    TMP DP  RH WIND       PRES   REMARKS
CHARLOTTESVILL CLOUDY    80  71  74 E3        30.15S
ORANGE*        DRIZZLE   79  72  78 CALM      30.16F

$$

VAZ055>057-212100-
NORTH AND CENTRAL PIEDMONT

CITY           SKY/WX    TMP DP  RH WIND       PRES   REMARKS
FREDERICKSBRG* CLOUDY    83  70  63 E7        30.14S
STAFFORD*      CLOUDY    81  70  68 E9        30.19F

$$

NCZ024-NYZ072-PAZ021-071-VAZ022-071-212100-
OTHER REGIONAL OBSERVATIONS

CITY           SKY/WX    TMP DP  RH WIND       PRES   REMARKS
NEW YORK CITY  SUNNY     85  57  38 NE5       30.17F
PHILADELPHIA   PTSUNNY   85  57  38 S6        30.15S
PITTSBURGH     MOSUNNY   82  66  58 W3        30.13F
ROANOKE        CLOUDY    79  68  69 SE8       30.17F
RICHMOND       CLOUDY    82  70  66 E9        30.16S
RALEIGH        LGT RAIN  76  72  87 NE5       30.13F FOG

$$

ANZ530>537-212100-
MARINE OBSERVATIONS

STATION/POSITION TIME  TEMP    WIND        PRES
                       AIR SEA DIR/SP/G
                 (UTC) (F)     (DEG/KT/KT) (MB)
THOMAS PT LIGHT  2000   78 80  200/  3/  3 1022.0F
BALT KEY BRIDGE  2000   78     130/  5/  6 1021.3F
COVE POINT       2000   76     190/  7/  9 1021.5S
LEWISETTA        2000   77 80  110/  9/ 10 1021.1F
SOLOMONS ISLAND  2000      82                N/A
PINEY POINT      2000          160/  9/ 10   N/A

$$



USA.gov is the U.S. government's official web portal to all federal, state and local government web resources and services.